502P/NEAT (2002)

Japanese version
Home page
Updated on June 14, 2025

---------------------------------------------------------------------

* Profile

Designation 502P/2003 QX29
Discovery Date August 23, 2003
Magnitude 19.8 mag
Discoverer Near-Earth-Asteroid Tracking Team (Jet Propulsion Laboratory)

* Orbital Elements

                    Epoch = 2002 Oct. 13.0 TT
     T = 2002 Oct. 27.20171 TT        Peri. =  37.34641
     e = 0.4715670                    Node  = 264.59035 2000.0
     q = 4.2399277 AU                 Incl. =  11.39705
       a =  8.0235859 AU   n = 0.04336619   P =  22.73 years

* Finding Charts

* Magnitudes Graph

        m1 = -3.5 + 5 log d + 30.0 log r

---------------------------------------------------------------------

The orbital elements are printed on CBET 5547.
The charts are made with StellaNavigator Ver.2.0 for Windows (AstroArts / ASCII).
The magnitudes graphs are made with Comet for Windows.

---------------------------------------------------------------------

Copyright(C) Seiichi Yoshida (comet@aerith.net). All rights reserved.